SHT5V EGAC-EGLL

Flight info

Callsign SHT5V
Flight time N/A
Altitude 33000
Route DCT DUFFY L10 RINGA Q39 ETIGA DCT INKOB Q39 NOMSU UQ4 WAL UY53 NUGRA NUGRA2H
Aircraft A320/M-SDE3FGIJ1KRWXY/SB1

Departure

Time 2026-04-21 23:58
Airport George Best Belfast City Airport (EGAC)

Arrival

Time N/A
Airport London Heathrow Airport (EGLL)
Time Latitude Longitude Altitude Speed Heading
2026-04-21 23:19 54.61499 -5.87145 23 ft 0 kts 156°
2026-04-21 23:50 54.61517 -5.87158 24 ft 3 kts 156°
2026-04-21 23:50 54.61534 -5.87171 22 ft 3 kts 158°
2026-04-21 23:50 54.61554 -5.87182 21 ft 3 kts 181°
2026-04-21 23:50 54.61572 -5.87174 21 ft 1 kts 214°
2026-04-21 23:51 54.61573 -5.87174 23 ft 0 kts 214°
2026-04-21 23:53 54.61566 -5.87182 21 ft 3 kts 215°
2026-04-21 23:53 54.61532 -5.87223 23 ft 9 kts 214°
2026-04-21 23:54 54.61480 -5.87284 22 ft 8 kts 214°
2026-04-21 23:54 54.61426 -5.87352 21 ft 11 kts 222°
2026-04-21 23:54 54.61378 -5.87450 21 ft 12 kts 221°
2026-04-21 23:54 54.61296 -5.87550 20 ft 17 kts 215°
2026-04-21 23:55 54.61184 -5.87684 18 ft 20 kts 214°
2026-04-21 23:55 54.61097 -5.87790 19 ft 9 kts 221°
2026-04-21 23:55 54.61084 -5.87833 19 ft 0 kts 256°
2026-04-21 23:57 54.61082 -5.87866 18 ft 6 kts 268°
2026-04-21 23:57 54.61106 -5.87955 19 ft 8 kts 303°
2026-04-21 23:57 54.61141 -5.88021 19 ft 8 kts 332°
2026-04-21 23:57 54.61190 -5.87996 20 ft 4 kts 36°
2026-04-21 23:58 54.61246 -5.87926 18 ft 30 kts 35°
2026-04-21 23:58 54.61643 -5.87451 16 ft 103 kts 34°
2026-04-21 23:58 54.62378 -5.86565 141 ft 142 kts 38°
2026-04-21 23:58 54.63147 -5.85668 899 ft 131 kts 37°
2026-04-21 23:59 54.63922 -5.84732 1309 ft 142 kts 37°
2026-04-21 23:59 54.64798 -5.83656 1452 ft 167 kts 41°
2026-04-21 23:59 54.65442 -5.81799 1531 ft 196 kts 80°
2026-04-21 23:59 54.65253 -5.79368 1859 ft 221 kts 109°
2026-04-22 00:00 54.64523 -5.76893 2393 ft 241 kts 127°
2026-04-22 00:00 54.63296 -5.74890 3374 ft 241 kts 130°
2026-04-22 00:00 54.62167 -5.72778 4382 ft 240 kts 128°
2026-04-22 00:00 54.61031 -5.70655 5311 ft 242 kts 129°
2026-04-22 00:01 54.59874 -5.68518 6187 ft 245 kts 130°
2026-04-22 00:01 54.58698 -5.66368 7043 ft 249 kts 130°
2026-04-22 00:01 54.57496 -5.64186 7897 ft 253 kts 131°
2026-04-22 00:01 54.56273 -5.61975 8719 ft 257 kts 131°
2026-04-22 00:02 54.55030 -5.59727 9510 ft 261 kts 131°
2026-04-22 00:02 54.53768 -5.57455 10269 ft 267 kts 131°
2026-04-22 00:02 54.52430 -5.55040 10530 ft 290 kts 131°
2026-04-22 00:02 54.50982 -5.52430 10766 ft 311 kts 132°
2026-04-22 00:03 54.49463 -5.49702 11346 ft 319 kts 132°
2026-04-22 00:03 54.47915 -5.46929 12073 ft 323 kts 132°
2026-04-22 00:03 54.46350 -5.44127 12748 ft 327 kts 132°
2026-04-22 00:03 54.44764 -5.41292 13413 ft 332 kts 133°
2026-04-22 00:04 54.43150 -5.38414 14065 ft 336 kts 133°
2026-04-22 00:04 54.41540 -5.35537 14703 ft 341 kts 133°
2026-04-22 00:04 54.39889 -5.32585 15334 ft 345 kts 133°
2026-04-22 00:04 54.38215 -5.29600 15934 ft 349 kts 133°
2026-04-22 00:05 54.36516 -5.26585 16503 ft 354 kts 133°
2026-04-22 00:05 54.34795 -5.23530 17068 ft 358 kts 133°
2026-04-22 00:05 54.33054 -5.20442 17631 ft 362 kts 134°
2026-04-22 00:05 54.31293 -5.17323 18202 ft 366 kts 134°
2026-04-22 00:06 54.29506 -5.14174 18732 ft 371 kts 134°
2026-04-22 00:06 54.27692 -5.10986 19251 ft 376 kts 134°
2026-04-22 00:06 54.25855 -5.07756 19776 ft 382 kts 134°
2026-04-22 00:06 54.23992 -5.04478 20326 ft 387 kts 134°
2026-04-22 00:07 54.22113 -5.01164 20935 ft 390 kts 135°
2026-04-22 00:07 54.20217 -4.97818 21512 ft 394 kts 135°
2026-04-22 00:07 54.18301 -4.94435 22032 ft 399 kts 135°
2026-04-22 00:07 54.16353 -4.91018 22470 ft 405 kts 135°
2026-04-22 00:08 54.14362 -4.87552 22890 ft 411 kts 135°
2026-04-22 00:08 54.12350 -4.84039 23312 ft 417 kts 135°
2026-04-22 00:08 54.10314 -4.80487 23765 ft 422 kts 135°
2026-04-22 00:08 54.08250 -4.76893 24200 ft 426 kts 135°
2026-04-22 00:09 54.06162 -4.73271 24648 ft 430 kts 135°
2026-04-22 00:09 54.04057 -4.69618 25068 ft 435 kts 135°
2026-04-22 00:09 54.01929 -4.65928 25487 ft 439 kts 135°
2026-04-22 00:09 53.99782 -4.62203 25887 ft 444 kts 135°
2026-04-22 00:10 53.97606 -4.58447 26237 ft 449 kts 135°
2026-04-22 00:10 53.95389 -4.54639 26550 ft 456 kts 135°
2026-04-22 00:10 53.93157 -4.50782 26916 ft 460 kts 135°
2026-04-22 00:10 53.90898 -4.46891 27294 ft 464 kts 135°
2026-04-22 00:11 53.88618 -4.42980 27631 ft 469 kts 135°
2026-04-22 00:11 53.86468 -4.38797 27968 ft 473 kts 127°
2026-04-22 00:11 53.84585 -4.34275 28287 ft 479 kts 124°
2026-04-22 00:11 53.82697 -4.29612 28645 ft 482 kts 124°
2026-04-22 00:12 53.80778 -4.24917 28925 ft 487 kts 124°
2026-04-22 00:12 53.78839 -4.20190 29230 ft 491 kts 124°
2026-04-22 00:12 53.76886 -4.15424 29552 ft 495 kts 124°
2026-04-22 00:12 53.74920 -4.10643 29994 ft 495 kts 124°
2026-04-22 00:13 53.72955 -4.05862 30393 ft 496 kts 124°
2026-04-22 00:13 53.70981 -4.01079 30837 ft 495 kts 125°
2026-04-22 00:13 53.69012 -3.96337 31302 ft 493 kts 125°
2026-04-22 00:13 53.67047 -3.91604 31825 ft 490 kts 125°
2026-04-22 00:14 53.65097 -3.86906 32323 ft 488 kts 125°
2026-04-22 00:14 53.63152 -3.82244 32852 ft 485 kts 126°
2026-04-22 00:14 53.61214 -3.77614 33296 ft 484 kts 126°
2026-04-22 00:15 53.57338 -3.68326 33397 ft 484 kts 126°
2026-04-22 00:15 53.53453 -3.59087 33398 ft 484 kts 126°
2026-04-22 00:16 53.49558 -3.49881 33406 ft 483 kts 126°
2026-04-22 00:16 53.46050 -3.40389 33402 ft 482 kts 114°
2026-04-22 00:17 53.43426 -3.30034 33406 ft 482 kts 113°
2026-04-22 00:17 53.40787 -3.19714 33408 ft 482 kts 113°
2026-04-22 00:18 53.37626 -3.09860 33420 ft 481 kts 127°
2026-04-22 00:18 53.33621 -3.00901 33426 ft 480 kts 128°
2026-04-22 00:19 53.29628 -2.91959 33426 ft 480 kts 128°
2026-04-22 00:19 53.25623 -2.83038 33429 ft 479 kts 128°
2026-04-22 00:20 53.21627 -2.74122 33428 ft 479 kts 128°
2026-04-22 00:20 53.17627 -2.65248 33422 ft 479 kts 128°
2026-04-22 00:21 53.13609 -2.56391 33417 ft 479 kts 127°
2026-04-22 00:21 53.09882 -2.47290 33415 ft 479 kts 124°
2026-04-22 00:22 53.06139 -2.38121 33408 ft 479 kts 125°
2026-04-22 00:22 53.01885 -2.29664 33382 ft 477 kts 140°
2026-04-22 00:22 52.99258 -2.26354 33149 ft 473 kts 150°
2026-04-22 00:23 52.96466 -2.23486 32904 ft 472 kts 151°
2026-04-22 00:23 52.93670 -2.20609 32650 ft 473 kts 150°
2026-04-22 00:23 52.90882 -2.17702 32400 ft 474 kts 150°
2026-04-22 00:23 52.88097 -2.14782 32153 ft 475 kts 150°
2026-04-22 00:24 52.85301 -2.11859 31901 ft 475 kts 150°
2026-04-22 00:24 52.82501 -2.08937 31648 ft 476 kts 150°
2026-04-22 00:24 52.79702 -2.06030 31401 ft 475 kts 150°
2026-04-22 00:24 52.76902 -2.03124 31145 ft 473 kts 150°
2026-04-22 00:25 52.74129 -2.00252 30769 ft 469 kts 150°
2026-04-22 00:25 52.71375 -1.97390 30239 ft 466 kts 150°
2026-04-22 00:25 52.68641 -1.94556 29762 ft 462 kts 150°
2026-04-22 00:25 52.65924 -1.91760 29262 ft 459 kts 150°
2026-04-22 00:26 52.63225 -1.88989 28758 ft 456 kts 150°
2026-04-22 00:26 52.60544 -1.86227 28264 ft 453 kts 150°
2026-04-22 00:26 52.57881 -1.83491 27757 ft 450 kts 150°
2026-04-22 00:26 52.55236 -1.80769 27253 ft 447 kts 149°
2026-04-22 00:27 52.52606 -1.78066 26733 ft 445 kts 149°
2026-04-22 00:27 52.49985 -1.75381 26218 ft 443 kts 149°
2026-04-22 00:27 52.47372 -1.72710 25688 ft 442 kts 149°
2026-04-22 00:27 52.44766 -1.70056 25171 ft 439 kts 149°
2026-04-22 00:28 52.42177 -1.67423 24640 ft 438 kts 149°
2026-04-22 00:28 52.39587 -1.64796 24117 ft 437 kts 149°
2026-04-22 00:28 52.37011 -1.62193 23622 ft 434 kts 149°
2026-04-22 00:28 52.34448 -1.59607 23209 ft 430 kts 148°
2026-04-22 00:29 52.31930 -1.57043 22877 ft 423 kts 148°
2026-04-22 00:29 52.29455 -1.54508 22566 ft 417 kts 148°
2026-04-22 00:29 52.27016 -1.52009 22186 ft 412 kts 148°
2026-04-22 00:29 52.24596 -1.49539 21692 ft 409 kts 148°
2026-04-22 00:30 52.22178 -1.47105 21177 ft 407 kts 148°
2026-04-22 00:30 52.19776 -1.44707 20730 ft 403 kts 148°
2026-04-22 00:30 52.17406 -1.42348 20365 ft 395 kts 148°
2026-04-22 00:30 52.15085 -1.40046 19984 ft 387 kts 148°
2026-04-22 00:31 52.12794 -1.37783 19482 ft 383 kts 148°
2026-04-22 00:31 52.11291 -1.36299 19081 ft 381 kts 148°
2026-04-22 00:31 52.09028 -1.34071 18478 ft 379 kts 148°
2026-04-22 00:31 52.06742 -1.31999 17955 ft 373 kts 154°
2026-04-22 00:32 52.04345 -1.30457 17436 ft 368 kts 161°
2026-04-22 00:32 52.01919 -1.29262 16908 ft 362 kts 166°
2026-04-22 00:32 51.99433 -1.28764 16182 ft 362 kts 179°
2026-04-22 00:32 51.96923 -1.29219 15272 ft 367 kts 192°
2026-04-22 00:33 51.94489 -1.30434 14535 ft 365 kts 203°
2026-04-22 00:33 51.92382 -1.32693 13743 ft 365 kts 222°
2026-04-22 00:33 51.90819 -1.35925 12825 ft 368 kts 239°
2026-04-22 00:33 51.89817 -1.39713 12209 ft 363 kts 253°
2026-04-22 00:34 51.89438 -1.43696 11713 ft 354 kts 266°
2026-04-22 00:34 51.89469 -1.47630 11210 ft 346 kts 273°
2026-04-22 00:34 51.89705 -1.51481 10608 ft 343 kts 276°
2026-04-22 00:34 51.90030 -1.55314 9885 ft 344 kts 278°
2026-04-22 00:35 51.90393 -1.59149 9129 ft 346 kts 278°
2026-04-22 00:35 51.90776 -1.63003 8412 ft 346 kts 278°
2026-04-22 00:35 51.91158 -1.66839 7774 ft 343 kts 279°
2026-04-22 00:35 51.91536 -1.70630 7223 ft 337 kts 278°
2026-04-22 00:36 51.91891 -1.74342 6683 ft 330 kts 278°
2026-04-22 00:36 51.92220 -1.77951 6042 ft 327 kts 278°
2026-04-22 00:36 51.92546 -1.81648 5292 ft 327 kts 277°
2026-04-22 00:36 51.92804 -1.85312 4562 ft 327 kts 275°
2026-04-22 00:37 51.92973 -1.88920 3906 ft 324 kts 273°
2026-04-22 00:37 51.93063 -1.92584 3268 ft 318 kts 271°
2026-04-22 00:37 51.93069 -1.96137 2575 ft 315 kts 269°
2026-04-22 00:37 51.93015 -1.99282 2125 ft 299 kts 263°
2026-04-22 00:38 51.92626 -2.02133 3024 ft 231 kts 251°
2026-04-22 00:38 51.92127 -2.04347 3295 ft 199 kts 239°
2026-04-22 00:38 51.91313 -2.06107 2925 ft 195 kts 224°
2026-04-22 00:38 51.90536 -2.07901 2713 ft 193 kts 233°
2026-04-22 00:39 51.89861 -2.09745 2571 ft 187 kts 237°
2026-04-22 00:39 51.89271 -2.11547 2464 ft 177 kts 239°
2026-04-22 00:39 51.88722 -2.13410 2081 ft 187 kts 245°
2026-04-22 00:39 51.88263 -2.15400 1827 ft 188 kts 250°
2026-04-22 00:40 51.87859 -2.17369 1710 ft 180 kts 251°
2026-04-22 00:40 51.87511 -2.19256 1606 ft 169 kts 254°
2026-04-22 00:40 51.87211 -2.21094 1335 ft 170 kts 257°
2026-04-22 00:40 51.86972 -2.22965 1120 ft 167 kts 260°
2026-04-22 00:41 51.86775 -2.24772 990 ft 159 kts 262°
2026-04-22 00:41 51.86629 -2.26552 713 ft 161 kts 265°
2026-04-22 00:41 51.86499 -2.28333 602 ft 154 kts 262°
2026-04-22 00:41 51.86344 -2.30014 463 ft 149 kts 262°
2026-04-22 00:42 51.86202 -2.31653 306 ft 147 kts 262°
2026-04-22 00:42 51.86089 -2.33265 191 ft 140 kts 264°
2026-04-22 00:42 51.86021 -2.34134 139 ft 134 kts 262°